1500048000.5,13356,20.44,73784.3,5.29,1.13,1.01,0,*72
1500048001.68,13357,20.44,73786.0,5.29,1.05,1.01,0,*74
1500048002.88,13358,20.38,73782.3,5.29,1.17,1.01,0,*78
1500048004.08,13359,20.44,73786.0,5.29,1.13,1.01,0,*7D
1500048005.3,13360,20.44,73784.3,5.23,1.17,0.95,0,*45
1500048006.53,13361,20.44,73784.5,5.25,1.43,1.33,0,*7E
1500048007.76,13362,20.44,73786.0,5.25,1.51,1.33,0,*7E
1500048008.96,13363,20.44,73784.8,5.23,1.41,1.29,0,*73
1500048010.18,13364,20.44,73784.5,5.25,1.43,1.25,0,*7C
1500048011.38,13365,20.44,73784.5,5.25,1.41,1.17,0,*7E
1500048012.6,13366,20.44,73786.3,5.25,1.43,1.25,0,*7E
1500048013.83,13367,20.44,73786.5,5.23,1.33,1.17,0,*7F
1500048015.03,13368,20.44,73786.3,5.23,1.25,1.05,0,*74
1500048016.25,13369,20.44,73784.3,5.23,1.09,0.95,0,*43
1500048017.48,13370,20.38,73782.3,5.23,1.21,0.95,0,*41
1500048018.7,13371,20.44,73784.3,5.23,1.17,0.95,0,*45
1500048019.9,13372,20.44,73784.5,5.23,1.05,0.87,0,*46
1500048021.13,13373,20.44,73784.3,5.21,1.21,1.05,0,*78
1500048022.38,13374,20.44,73788.0,5.21,1.33,1.17,0,*7F
1500048023.61,13375,20.44,73786.3,5.21,1.17,1.05,0,*7B
1500048024.82,13376,20.44,73786.3,5.19,0.95,0.79,0,*72
1500048026.03,13377,20.44,73790.3,5.19,1.05,0.83,0,*4E
1500048027.24,13378,20.44,73786.0,5.21,0.97,0.75,0,*79
1500048028.47,13379,20.44,73786.8,5.19,0.91,0.71,0,*71
1500048029.72,13380,20.44,73786.0,5.17,0.91,0.71,0,*79
1500048030.94,13381,20.44,73788.5,5.17,1.01,0.83,0,*4D
1500048032.17,13382,20.44,73784.3,5.15,1.25,1.09,0,*79
1500048033.43,13383,20.44,73786.3,5.17,1.37,1.29,0,*7B
1500048034.68,13384,20.44,73784.8,5.17,1.43,1.25,0,*73
1500048035.9,13385,20.44,73788.5,5.17,1.41,1.25,0,*70
1500048037.11,13386,20.44,73788.3,5.15,1.21,1.01,0,*71
1500048038.31,13387,20.44,73784.8,5.15,1.01,0.87,0,*4D
1500048039.51,13388,20.44,73784.8,5.15,1.05,0.91,0,*41
1500048040.71,13389,20.44,73786.3,5.15,0.97,0.87,0,*7D
1500048041.91,13390,20.38,73786.5,5.15,0.97,0.79,0,*74
1500048043.11,13391,20.44,73788.5,5.15,1.09,0.97,0,*43
1500048044.33,13392,20.44,73790.3,5.15,0.79,0.63,0,*7D
1500048045.54,13393,20.44,73786.3,5.15,0.75,0.67,0,*74
1500048046.76,13394,20.44,73786.5,5.13,1.01,0.91,0,*4E
1500048048.0,13395,20.44,73788.8,5.13,0.91,0.79,0,*71
1500048049.22,13396,20.44,73784.0,5.11,0.87,0.75,0,*7B
1500048050.45,13397,20.44,73786.3,5.11,0.87,0.75,0,*7A
1500048051.64,13398,20.38,73786.8,5.11,1.09,0.97,0,*4E
1500048052.88,13399,20.44,73784.5,5.11,1.17,1.09,0,*76
1500048054.1,13400,20.44,73786.8,5.13,1.41,1.33,0,*79
1500048055.32,13401,20.44,73790.8,5.11,1.43,1.29,0,*73
1500048056.52,13402,20.44,73790.0,5.11,1.17,0.97,0,*45
1500048057.75,13403,20.44,73790.5,5.09,1.05,0.91,0,*48
1500048058.99,13404,20.44,73786.3,5.09,0.91,0.79,0,*75
1500048060.24,13405,20.44,73784.8,5.09,1.13,0.95,0,*4D
1500048061.5,13406,20.44,73790.5,5.09,1.29,1.17,0,*7C
1500048062.7,13407,20.44,73790.3,5.07,1.41,1.29,0,*70
1500048063.96,13408,20.44,73788.3,5.09,1.29,1.13,0,*76
1500048065.17,13409,20.44,73786.8,5.07,1.17,1.05,0,*73
1500048066.39,13410,20.38,73784.0,5.09,1.25,1.05,0,*74
1500048067.64,13411,20.44,73788.5,5.09,1.17,0.95,0,*4C
1500048068.87,13412,20.44,73784.8,5.09,1.17,1.01,0,*73
1500048070.08,13413,20.44,73784.8,5.07,1.17,1.05,0,*78
1500048071.28,13414,20.44,73790.5,5.07,1.01,0.79,0,*42
1500048072.47,13415,20.44,73788.0,5.07,1.01,0.79,0,*43
1500048073.72,13416,20.44,73784.3,5.09,1.25,0.95,0,*4A
1500048074.95,13417,20.44,73786.3,5.03,1.29,1.13,0,*72
1500048076.16,13418,20.44,73788.3,5.03,1.25,1.01,0,*72
1500048077.42,13419,20.44,73784.8,5.01,1.13,0.91,0,*4C
1500048078.63,13420,20.38,73784.5,5.03,1.29,1.01,0,*75
1500048079.86,13421,20.44,73786.5,5.03,1.47,1.21,0,*7E
1500048081.09,13422,20.44,73784.8,5.03,1.37,1.13,0,*7B
1500048082.29,13423,20.44,73784.3,5.03,1.41,1.21,0,*7A
1500048083.5,13424,20.38,73786.3,5.03,1.13,0.97,0,*46
1500048084.76,13425,20.44,73788.0,5.01,1.29,1.09,0,*7A
1500048086.01,13426,20.44,73788.5,5.01,1.25,1.09,0,*75
1500048087.24,13427,20.38,73784.5,5.01,1.13,0.97,0,*47
1500048088.49,13428,20.44,73788.5,5.01,1.25,1.13,0,*70
1500048089.74,13429,20.38,73786.5,5.01,1.47,1.37,0,*73
1500048090.97,13430,20.44,73786.3,5.03,1.47,1.29,0,*76
1500048092.19,13431,20.44,73788.5,5.01,1.41,1.25,0,*7F
1500048093.43,13432,20.44,73788.0,5.03,1.37,1.21,0,*7B
1500048094.66,13433,20.44,73784.3,5.03,1.25,1.13,0,*78
1500048095.89,13434,20.44,73788.0,5.03,1.09,0.87,0,*4D
1500048097.15,13435,20.44,73786.8,5.01,1.13,0.91,0,*42
1500048098.38,13436,20.44,73788.8,5.01,1.21,0.97,0,*46
1500048099.6,13437,20.38,73784.0,5.03,0.79,0.75,0,*75
1500048100.85,13438,20.44,73788.8,5.01,0.79,0.63,0,*7F
1500048102.07,13439,20.38,73784.0,4.99,0.71,0.59,0,*7F
1500048103.32,13440,20.44,73788.3,4.97,0.79,0.59,0,*77
1500048104.54,13441,20.44,73786.8,4.97,1.01,0.79,0,*4A
1500048105.77,13442,20.44,73786.3,4.99,1.09,0.95,0,*4D
1500048107.0,13443,20.44,73788.5,4.97,1.13,1.05,0,*71
1500048108.26,13444,20.44,73790.5,4.97,1.21,1.17,0,*74
1500048109.5,13445,20.44,73788.0,4.99,1.33,1.21,0,*7D
1500048110.76,13446,20.44,73788.0,4.97,1.33,1.21,0,*70
1500048112.02,13447,20.44,73788.8,4.97,1.29,1.13,0,*7B
1500048113.25,13448,20.38,73784.8,4.97,1.17,1.01,0,*7A
1500048114.46,13449,20.44,73788.0,4.99,1.13,0.97,0,*4F
1500048115.66,13450,20.38,73786.5,4.97,1.05,1.01,0,*70
1500048116.9,13451,20.44,73790.3,4.97,0.95,0.79,0,*77
1500048118.14,13452,20.38,73788.8,4.97,0.71,0.59,0,*7C
1500048119.39,13453,20.44,73788.0,4.97,0.79,0.59,0,*75
1500048120.63,13454,20.44,73792.3,4.95,1.13,0.83,0,*4A
1500048121.83,13455,20.38,73784.0,4.95,1.01,0.91,0,*4B
1500048123.09,13456,20.44,73788.3,4.93,0.91,0.75,0,*7C
1500048124.34,13457,20.38,73786.0,4.93,0.91,0.67,0,*7E
1500048125.6,13458,20.44,73788.0,4.93,1.09,0.87,0,*4F
1500048126.82,13459,20.38,73784.5,4.95,1.21,1.05,0,*79
1500048128.08,13460,20.44,73788.8,4.93,1.13,0.87,0,*4F
1500048129.35,13461,20.38,73786.8,4.93,1.13,0.91,0,*49
1500048130.61,13462,20.38,73786.5,4.93,1.17,0.91,0,*4E
1500048131.82,13463,20.38,73786.8,4.95,1.21,1.01,0,*74
1500048133.09,13464,20.38,73784.8,4.93,1.13,0.91,0,*4C
1500048134.36,13465,20.44,73788.0,4.93,1.17,0.91,0,*49
1500048135.59,13466,20.44,73788.3,4.93,1.13,1.01,0,*76
1500048136.86,13467,20.38,73786.0,4.93,1.37,1.17,0,*76
1500048138.12,13468,20.44,73790.5,4.93,1.37,1.17,0,*79
1500048139.38,13469,20.44,73790.8,4.91,1.37,1.13,0,*7E
1500048140.64,13470,20.38,73784.8,4.91,1.29,1.09,0,*72
1500048141.9,13471,20.38,73784.5,4.91,1.29,1.13,0,*78
1500048143.12,13472,20.44,73788.8,4.91,1.41,1.29,0,*7C
1500048144.34,13473,20.38,73784.3,4.89,1.43,1.09,0,*74
1500048145.56,13474,20.44,73788.5,4.91,1.41,1.17,0,*77
1500048146.81,13475,20.44,73788.3,4.91,1.59,1.37,0,*7D
1500048148.03,13476,20.38,73784.8,4.91,1.59,1.41,0,*7F
1500048149.28,13477,20.38,73784.8,4.91,1.47,1.37,0,*70
1500048150.53,13478,20.44,73788.5,4.91,1.47,1.37,0,*7F
1500048151.78,13479,20.38,73784.0,4.91,1.51,1.37,0,*79
1500048153.03,13480,20.44,73790.8,4.91,1.51,1.37,0,*7F
1500048154.28,13481,20.38,73784.5,4.91,1.37,1.17,0,*7C
1500048155.54,13482,20.38,73790.5,4.91,1.37,1.17,0,*7F
1500048156.77,13483,20.38,73790.5,4.89,1.37,1.13,0,*73
1500048158.03,13484,20.38,73786.5,4.91,1.37,1.17,0,*79
1500048159.26,13485,20.38,73788.8,4.89,1.33,1.21,0,*70
1500048160.49,13486,20.44,73788.0,4.89,1.37,1.25,0,*73
1500048161.75,13487,20.44,73788.5,4.91,1.37,1.25,0,*7B
1500048163.0,13488,20.44,73788.0,4.91,1.37,1.25,0,*74
1500048164.23,13489,20.38,73784.8,4.91,1.41,1.29,0,*78
1500048165.46,13490,20.38,73788.0,4.89,1.21,1.13,0,*76
1500048166.65,13491,20.44,73790.3,4.89,1.05,0.87,0,*4D
1500048167.87,13492,20.38,73788.0,4.89,0.95,0.83,0,*72
1500048169.06,13493,20.38,73784.0,4.89,0.97,0.87,0,*75
1500048170.29,13494,20.38,73786.3,4.87,1.05,0.83,0,*42
1500048171.51,13495,20.44,73788.5,4.87,1.01,0.95,0,*40
1500048172.74,13496,20.38,73786.5,4.87,1.09,1.05,0,*73
1500048173.98,13497,20.44,73792.5,4.85,1.21,1.09,0,*76
1500048175.21,13498,20.38,73788.8,4.85,1.29,1.17,0,*7E
1500048176.43,13499,20.44,73790.0,4.85,1.43,1.29,0,*7E
1500048177.65,13500,20.38,73786.0,4.85,1.43,1.43,0,*73
1500048178.88,13501,20.38,73788.5,4.85,1.55,1.51,0,*76
1500048180.11,13502,20.38,73788.3,4.85,1.55,1.51,0,*75
1500048181.3,13503,20.38,73788.3,4.85,1.51,1.41,0,*71
1500048182.56,13504,20.38,73786.5,4.87,1.33,1.21,0,*76
1500048183.8,13505,20.44,73790.3,4.85,1.33,1.29,0,*7D
1500048185.03,13506,20.38,73786.5,4.85,1.29,1.17,0,*78
1500048186.27,13507,20.38,73786.8,4.85,1.21,1.09,0,*7E
1500048187.5,13508,20.38,73786.3,4.85,1.29,1.21,0,*73
1500048188.74,13509,20.38,73788.0,4.85,1.17,1.09,0,*75
1500048189.96,13510,20.38,73788.0,4.81,1.25,1.17,0,*77
1500048191.2,13511,20.38,73790.3,4.81,1.37,1.25,0,*74
1500048192.4,13512,20.38,73790.0,4.81,1.17,1.05,0,*77
1500048193.63,13513,20.38,73786.0,4.81,1.29,1.25,0,*79
1500048194.87,13514,20.38,73786.8,4.81,1.37,1.17,0,*70
1500048196.1,13515,20.44,73790.5,4.81,1.29,1.13,0,*7A
1500048197.36,13516,20.38,73784.8,4.79,1.17,1.13,0,*73
1500048198.61,13517,20.44,73790.3,4.79,1.25,1.17,0,*77
1500048199.87,13518,20.44,73788.3,4.79,1.29,1.17,0,*74
1500048201.08,13519,20.38,73790.0,4.79,1.05,1.01,0,*7C
1500048202.34,13520,20.44,73788.0,4.79,1.13,1.13,0,*72
1500048203.55,13521,20.38,73788.5,4.77,1.09,1.01,0,*75
1500048204.78,13522,20.38,73788.0,4.77,1.09,1.13,0,*75
1500048205.99,13523,20.44,73790.0,4.77,1.09,1.01,0,*77
1500048207.17,13524,20.38,73788.8,4.77,1.01,1.01,0,*78
1500048208.37,13525,20.44,73788.3,4.75,1.05,1.05,0,*7B
1500048209.61,13526,20.38,73784.0,4.77,1.13,1.09,0,*71
1500048210.87,13527,20.38,73788.0,4.75,1.17,1.17,0,*79
1500048212.13,13528,20.38,73786.3,4.75,1.29,1.21,0,*7E
1500048213.39,13529,20.38,73788.0,4.75,1.29,1.17,0,*7A
1500048214.62,13530,20.38,73786.3,4.75,1.09,0.97,0,*49
1500048215.88,13531,20.38,73788.3,4.75,1.21,1.09,0,*74
1500048217.11,13532,20.38,73784.5,4.75,1.17,1.05,0,*7E
1500048218.37,13533,20.38,73788.8,4.75,1.29,1.29,0,*7C
1500048219.63,13534,20.38,73786.5,4.75,1.33,1.29,0,*70
1500048220.85,13535,20.44,73790.3,4.75,1.41,1.43,0,*78
1500048222.09,13536,20.38,73786.3,4.77,1.37,1.25,0,*78
1500048223.35,13537,20.38,73784.8,4.75,1.33,1.29,0,*73
1500048224.61,13538,20.38,73788.3,4.75,1.33,1.29,0,*7C
1500048225.85,13539,20.38,73790.0,4.77,1.13,1.09,0,*7F
1500048227.11,13540,20.38,73786.8,4.75,1.09,1.09,0,*78
1500048228.36,13541,20.38,73790.0,4.75,1.09,1.17,0,*76
1500048229.6,13542,20.38,73784.3,4.73,1.21,1.17,0,*79
1500048230.8,13543,20.38,73788.3,4.73,1.09,1.05,0,*71
1500048232.03,13544,20.38,73786.3,4.73,1.17,1.17,0,*7A
1500048233.27,13545,20.38,73786.5,4.73,1.21,1.09,0,*71
1500048234.51,13546,20.38,73786.0,4.73,1.21,1.17,0,*7D
1500048235.74,13547,20.38,73784.8,4.73,1.21,1.09,0,*73
1500048236.97,13548,20.38,73790.3,4.73,1.17,1.09,0,*79
1500048238.21,13549,20.38,73790.0,4.73,1.21,1.09,0,*7D
1500048239.41,13550,20.38,73784.3,4.73,1.05,0.95,0,*47
1500048240.6,13551,20.38,73788.0,4.69,1.01,0.95,0,*49
1500048241.77,13552,20.38,73788.3,4.73,1.05,0.97,0,*47
1500048242.98,13553,20.38,73786.5,4.73,1.09,1.05,0,*70
1500048244.17,13554,20.38,73790.5,4.73,1.17,0.97,0,*42
1500048245.38,13555,20.38,73784.8,4.69,1.01,0.91,0,*49
1500048246.61,13556,20.38,73790.3,4.67,0.97,0.91,0,*7A
1500048247.83,13557,20.44,73792.3,4.69,0.95,0.91,0,*77
1500048249.08,13558,20.38,73788.5,4.67,0.91,0.83,0,*71
1500048250.28,13559,20.38,73788.3,4.67,1.01,0.97,0,*4D
1500048251.51,13560,20.38,73786.0,4.67,1.13,1.01,0,*7A
1500048252.77,13561,20.38,73790.0,4.67,1.09,1.09,0,*78
1500048254.0,13562,20.38,73790.0,4.67,1.09,1.01,0,*73
1500048255.26,13563,20.38,73784.3,4.67,1.09,0.91,0,*4A
1500048256.49,13564,20.38,73788.3,4.67,0.97,0.91,0,*7B
1500048257.72,13565,20.44,73788.0,4.67,0.97,0.87,0,*7D
1500048258.97,13566,20.38,73790.8,4.67,0.91,0.75,0,*75
1500048260.16,13567,20.38,73788.3,4.65,1.05,0.95,0,*44
1500048261.36,13568,20.38,73786.8,4.65,1.09,1.05,0,*7F
1500048262.57,13569,20.38,73788.8,4.65,1.09,1.05,0,*7E
1500048263.79,13570,20.38,73784.8,4.65,1.17,1.17,0,*7A
1500048265.02,13571,20.38,73788.5,4.63,1.41,1.21,0,*7B
1500048266.29,13572,20.38,73788.8,4.63,1.21,1.09,0,*74
1500048267.49,13573,20.38,73786.5,4.65,1.17,1.05,0,*7A
1500048268.72,13574,20.38,73790.0,4.63,1.09,1.05,0,*74
1500048269.95,13575,20.38,73788.3,4.63,0.97,0.87,0,*78
1500048271.2,13576,20.38,73786.5,4.63,1.09,0.95,0,*4E
1500048272.42,13577,20.38,73786.3,4.63,1.05,0.95,0,*43
1500048273.65,13578,20.38,73790.3,4.63,1.09,1.05,0,*78
1500048274.89,13579,20.38,73788.3,4.63,1.21,1.05,0,*73
1500048276.1,13580,20.38,73784.8,4.61,1.17,1.05,0,*72
1500048277.31,13581,20.38,73786.0,4.61,1.17,1.05,0,*73
1500048278.52,13582,20.38,73786.5,4.57,1.13,1.05,0,*71
1500048279.7,13583,20.38,73786.3,4.61,1.05,1.05,0,*72
1500048280.93,13584,20.38,73786.5,4.57,1.17,1.13,0,*74
1500048282.16,13585,20.38,73790.8,4.61,1.25,1.13,0,*71
1500048283.4,13586,20.38,73784.8,4.61,1.13,1.13,0,*77
1500048284.58,13587,20.38,73788.8,4.61,1.05,1.05,0,*76
1500048285.81,13588,20.38,73788.0,4.57,1.13,1.13,0,*7C
1500048287.05,13589,20.38,73788.0,4.61,1.13,1.13,0,*78
1500048288.25,13590,20.38,73784.0,4.61,1.25,1.05,0,*72
1500048289.48,13591,20.38,73788.8,4.57,1.25,1.13,0,*71
1500048290.68,13592,20.38,73786.5,4.57,1.17,1.05,0,*74
1500048291.92,13593,20.38,73790.3,4.57,1.13,1.13,0,*76
1500048293.15,13594,20.38,73788.8,4.57,1.29,1.13,0,*78
1500048294.38,13595,20.38,73788.8,4.57,1.29,1.17,0,*7D
1500048295.62,13596,20.38,73786.0,4.57,1.29,1.13,0,*7A
1500048296.85,13597,20.38,73790.0,4.57,1.29,1.17,0,*7F
1500048298.11,13598,20.38,73788.3,4.55,1.25,1.21,0,*7B
1500048299.34,13599,20.38,73790.0,4.57,1.29,1.25,0,*70
1500048300.57,13600,20.38,73788.3,4.57,1.17,1.17,0,*7F
1500048301.8,13601,20.38,73788.8,4.55,1.13,1.01,0,*7F
1500048303.06,13602,20.38,73784.5,4.55,1.21,1.13,0,*7E
1500048304.32,13603,20.38,73784.8,4.55,1.25,1.33,0,*79
1500048305.55,13604,20.38,73784.3,4.53,1.33,1.29,0,*74
1500048306.79,13605,20.38,73788.3,4.53,1.21,1.33,0,*7D
1500048308.05,13606,20.38,73786.3,4.55,1.37,1.43,0,*78
1500048309.27,13607,20.38,73788.5,4.57,1.25,1.29,0,*74
1500048310.51,13608,20.38,73784.0,4.53,1.29,1.21,0,*7B
1500048311.77,13609,20.38,73786.5,4.55,1.25,1.33,0,*73
1500048313.03,13610,20.38,73790.5,4.55,1.33,1.33,0,*7C
1500048314.27,13611,20.38,73788.3,4.55,1.13,1.01,0,*7E
1500048315.44,13612,20.38,73790.3,4.53,0.97,0.97,0,*78
1500048316.66,13613,20.38,73786.5,4.53,0.95,0.87,0,*7A
1500048317.86,13614,20.38,73786.0,4.53,1.09,1.05,0,*72
1500048319.07,13615,20.38,73790.3,4.53,1.09,0.97,0,*49
1500048320.3,13616,20.38,73788.8,4.53,1.29,1.29,0,*7C
1500048321.54,13617,20.38,73784.8,4.53,1.21,1.09,0,*77
1500048322.8,13618,20.38,73788.8,4.51,1.29,1.21,0,*78
1500048324.04,13619,20.38,73790.0,4.53,1.17,1.09,0,*7C
1500048325.25,13620,20.38,73788.3,4.49,1.17,1.05,0,*71
1500048326.5,13621,20.38,73788.3,4.51,1.17,1.17,0,*7A
1500048327.73,13622,20.38,73790.5,4.49,1.17,1.13,0,*74
1500048328.94,13623,20.38,73790.5,4.49,1.09,1.01,0,*79
1500048330.12,13624,20.38,73790.5,4.49,1.05,1.05,0,*76
1500048331.33,13625,20.38,73788.8,4.49,1.17,1.05,0,*74
1500048332.56,13626,20.38,73788.3,4.49,1.17,1.17,0,*74
1500048333.77,13627,20.38,73788.3,4.49,1.25,1.05,0,*77
1500048335.02,13628,20.38,73788.8,4.51,1.29,1.29,0,*73
1500048336.25,13629,20.38,73788.8,4.49,1.25,1.17,0,*7A
1500048337.48,13630,20.38,73788.3,4.49,1.25,1.29,0,*7F
1500048338.72,13631,20.38,73786.5,4.49,1.37,1.37,0,*72
1500048339.98,13632,20.38,73790.5,4.47,1.17,1.29,0,*72
1500048341.24,13633,20.38,73790.5,4.47,1.17,1.29,0,*73
1500048342.46,13634,20.38,73788.8,4.47,1.41,1.51,0,*78
1500048343.72,13635,20.38,73784.3,4.47,1.37,1.37,0,*78
1500048344.98,13636,20.38,73786.0,4.47,1.25,1.29,0,*77
1500048346.23,13637,20.38,73786.3,4.47,1.25,1.29,0,*76
1500048347.49,13638,20.38,73788.0,4.47,1.29,1.29,0,*75
1500048348.72,13639,20.38,73788.3,4.49,1.25,1.29,0,*76
1500048349.96,13640,20.38,73788.3,4.49,1.29,1.29,0,*74
1500048351.21,13641,20.38,73786.8,4.47,1.17,1.17,0,*7B
1500048352.47,13642,20.38,73790.5,4.47,1.29,1.17,0,*75
1500048353.73,13643,20.38,73790.8,4.47,1.29,1.17,0,*74
1500048354.96,13644,20.38,73786.8,4.45,1.25,1.21,0,*78
1500048356.22,13645,20.38,73788.3,4.47,1.29,1.29,0,*7F
1500048357.44,13646,20.38,73790.3,4.47,1.43,1.41,0,*7E
1500048358.67,13647,20.38,73790.5,4.45,1.21,1.25,0,*7B
1500048359.9,13648,20.38,73790.0,4.47,1.41,1.51,0,*73
1500048361.15,13649,20.38,73788.3,4.47,1.43,1.51,0,*70
1500048362.38,13650,20.38,73784.3,4.47,1.37,1.41,0,*7A
1500048363.61,13651,20.38,73788.3,4.45,1.33,1.37,0,*7C
1500048364.84,13652,20.38,73790.0,4.45,1.25,1.33,0,*7C
1500048366.08,13653,20.38,73788.0,4.45,1.21,1.21,0,*7A
1500048367.32,13654,20.38,73788.5,4.45,1.37,1.33,0,*79
1500048368.51,13655,20.38,73786.0,4.45,1.41,1.47,0,*7A
1500048369.74,13656,20.38,73788.5,4.47,1.41,1.47,0,*7B
1500048370.97,13657,20.38,73788.8,4.45,1.13,1.21,0,*7F
1500048372.2,13658,20.38,73786.3,4.45,1.25,1.33,0,*76
1500048373.47,13659,20.38,73788.3,4.47,1.37,1.37,0,*72
1500048374.7,13660,20.38,73788.3,4.45,1.33,1.33,0,*7A
1500048375.94,13661,20.38,73788.8,4.45,1.33,1.37,0,*7F
1500048377.2,13662,20.38,73788.3,4.47,1.37,1.37,0,*7A
1500048378.44,13663,20.38,73790.5,4.45,1.37,1.37,0,*79
1500048379.67,13664,20.38,73790.8,4.45,1.33,1.25,0,*79
1500048380.93,13665,20.38,73788.3,4.43,1.37,1.33,0,*7D
1500048382.18,13666,20.38,73790.0,4.43,1.47,1.51,0,*7D
1500048383.42,13667,20.38,73790.0,4.43,1.59,1.59,0,*7B
1500048384.62,13668,20.38,73788.3,4.45,1.41,1.37,0,*73
1500048385.85,13669,20.38,73788.5,4.45,1.25,1.13,0,*76
1500048387.09,13670,20.38,73784.8,4.45,1.33,1.33,0,*7B
1500048388.33,13671,20.38,73788.3,4.45,1.37,1.37,0,*7A
1500048389.58,13672,20.38,73790.0,4.43,1.37,1.47,0,*78
1500048390.83,13673,20.38,73790.8,4.43,1.25,1.13,0,*7B
1500048392.06,13674,20.38,73786.0,4.41,1.29,1.29,0,*7B
1500048393.32,13675,20.38,73786.0,4.43,1.37,1.37,0,*78
1500048394.54,13676,20.38,73790.0,4.43,1.41,1.47,0,*7D
1500048395.79,13677,20.38,73788.0,4.43,1.25,1.33,0,*7D
1500048397.03,13678,20.38,73788.3,4.41,1.33,1.33,0,*77
1500048398.29,13679,20.38,73790.5,4.43,1.37,1.37,0,*74
1500048399.55,13680,20.38,73788.0,4.43,1.33,1.21,0,*71
1500048400.78,13681,20.38,73790.3,4.41,1.17,1.17,0,*71
1500048402.01,13682,20.38,73790.8,4.43,1.01,1.09,0,*78
1500048403.17,13683,20.38,73788.5,4.45,0.97,0.97,0,*77
1500048404.43,13684,20.38,73788.3,4.43,1.21,1.21,0,*76
1500048405.61,13685,20.38,73788.8,4.41,1.05,1.05,0,*75
1500048406.82,13686,20.38,73788.5,4.41,1.05,1.09,0,*7A
1500048408.02,13687,20.38,73790.5,4.41,1.09,1.05,0,*7B
1500048409.23,13688,20.38,73790.0,4.41,1.09,1.05,0,*74
1500048410.43,13689,20.38,73790.5,4.41,1.09,1.05,0,*75
1500048411.64,13690,20.38,73788.3,4.41,0.95,0.95,0,*71
1500048412.87,13691,20.38,73790.5,4.41,1.09,1.17,0,*7F
1500048414.11,13692,20.38,73790.5,4.41,1.21,1.21,0,*73
1500048415.34,13693,20.38,73788.5,4.41,1.17,1.29,0,*7F
1500048416.6,13694,20.38,73790.0,4.39,1.17,1.13,0,*7E
1500048417.85,13695,20.38,73788.3,4.39,1.17,1.13,0,*7F
1500048419.11,13696,20.38,73790.8,4.39,1.29,1.25,0,*74
1500048420.36,13697,20.38,73790.8,4.39,1.25,1.17,0,*78
1500048421.58,13698,20.38,73790.3,4.35,1.29,1.41,0,*74
1500048422.81,13699,20.38,73790.3,4.39,1.13,1.05,0,*70
1500048424.07,13700,20.38,73790.0,4.35,1.17,1.13,0,*7E
1500048425.32,13701,20.38,73790.5,4.39,1.25,1.17,0,*76
1500048426.58,13702,20.38,73788.3,4.39,1.29,1.25,0,*78
1500048427.83,13703,20.38,73792.5,4.39,1.13,1.17,0,*71
1500048429.08,13704,20.38,73790.5,4.39,1.25,1.25,0,*72
1500048430.33,13705,20.38,73788.0,4.39,1.25,1.25,0,*73
1500048431.59,13706,20.38,73788.0,4.39,1.17,1.17,0,*70
1500048432.84,13707,20.38,73786.5,4.39,1.29,1.29,0,*71
1500048434.07,13708,20.38,73788.5,4.35,1.29,1.41,0,*7C
1500048435.33,13709,20.38,73788.5,4.39,1.29,1.29,0,*7F
1500048436.58,13710,20.38,73784.5,4.39,1.33,1.51,0,*73
1500048437.8,13711,20.38,73790.5,4.39,1.41,1.43,0,*74
1500048439.03,13712,20.38,73786.5,4.39,1.33,1.41,0,*70
1500048440.25,13713,20.38,73790.3,4.35,1.41,1.29,0,*76
1500048441.48,13714,20.38,73786.5,4.35,1.33,1.41,0,*7A
1500048442.7,13715,20.38,73786.8,4.39,1.17,1.41,0,*71
1500048443.95,13716,20.38,73786.5,4.35,1.29,1.43,0,*71
1500048445.2,13717,20.38,73786.5,4.35,1.25,1.29,0,*70
1500048446.46,13718,20.38,73786.5,4.35,1.29,1.29,0,*73
1500048447.71,13719,20.38,73786.8,4.35,1.29,1.29,0,*72
1500048448.97,13720,20.38,73788.3,4.39,1.33,1.43,0,*73
1500048450.22,13721,20.38,73790.8,4.35,1.33,1.29,0,*72
1500048451.48,13722,20.38,73788.3,4.35,1.29,1.25,0,*76
1500048452.74,13723,20.38,73790.3,4.35,1.29,1.25,0,*77
1500048453.99,13724,20.38,73788.3,4.39,1.25,1.29,0,*7C
1500048455.24,13725,20.38,73788.5,4.35,1.17,1.17,0,*7D
1500048456.47,13726,20.38,73790.8,4.35,1.13,1.05,0,*79
1500048457.71,13727,20.38,73788.3,4.33,1.09,1.09,0,*79
1500048458.94,13728,20.38,73790.0,4.33,1.25,1.25,0,*76
1500048460.17,13729,20.38,73788.8,4.33,1.25,1.25,0,*77
1500048461.4,13730,20.38,73788.5,4.33,1.09,1.13,0,*74
1500048462.66,13731,20.38,73788.3,4.35,1.17,1.29,0,*75
1500048463.91,13732,20.38,73790.0,4.35,1.33,1.51,0,*7F
1500048465.16,13733,20.38,73790.3,4.35,1.43,1.51,0,*79
1500048466.35,13734,20.38,73790.3,4.33,1.47,1.41,0,*7D
1500048467.56,13735,20.38,73788.0,4.33,1.37,1.41,0,*7B
1500048468.79,13736,20.38,73790.3,4.33,1.37,1.47,0,*7E
1500048469.96,13737,20.38,73788.0,4.33,1.41,1.41,0,*78
1500048471.16,13738,20.38,73790.5,4.33,1.47,1.41,0,*71
1500048472.33,13739,20.38,73788.3,4.33,1.41,1.41,0,*76
1500048473.55,13740,20.38,73790.8,4.35,1.43,1.41,0,*7C
1500048474.76,13741,20.38,73790.8,4.35,1.43,1.41,0,*7D
1500048476.02,13742,20.38,73790.3,4.35,1.17,1.17,0,*7C
1500048477.27,13743,20.38,73786.8,4.35,1.29,1.29,0,*7D
1500048478.53,13744,20.38,73790.0,4.35,1.17,1.29,0,*77
1500048479.78,13745,20.38,73788.5,4.35,1.33,1.29,0,*70
1500048481.02,13746,20.38,73788.8,4.33,1.29,1.25,0,*72
1500048482.26,13747,20.38,73790.3,4.33,1.21,1.13,0,*7E
1500048483.49,13748,20.38,73792.3,4.33,1.09,1.09,0,*70
1500048484.75,13749,20.38,73790.8,4.31,1.25,1.25,0,*73
1500048485.98,13750,20.38,73790.3,4.33,1.25,1.25,0,*79
1500048487.22,13751,20.38,73788.3,4.33,1.09,1.09,0,*78
1500048488.48,13752,20.38,73788.5,4.31,1.13,1.09,0,*72
1500048489.75,13753,20.38,73788.8,4.31,1.13,1.21,0,*79
1500048490.99,13754,20.38,73790.3,4.33,1.29,1.37,0,*72
1500048492.25,13755,20.38,73788.0,4.31,1.37,1.37,0,*7E
1500048493.51,13756,20.38,73790.3,4.31,1.37,1.47,0,*7A
1500048494.77,13757,20.38,73788.3,4.31,1.37,1.47,0,*7B
1500048496.0,13758,20.38,73790.8,4.31,1.41,1.47,0,*75
1500048497.24,13759,20.38,73788.5,4.33,1.37,1.37,0,*70
1500048498.47,13760,20.38,73790.0,4.31,1.29,1.41,0,*76
1500048499.71,13761,20.38,73788.0,4.33,1.29,1.25,0,*77
1500048500.96,13762,20.38,73790.0,4.31,1.25,1.25,0,*7A
1500048502.19,13763,20.38,73790.0,4.31,1.41,1.47,0,*7D
1500048503.36,13764,20.38,73790.8,4.33,1.41,1.41,0,*7E
1500048504.56,13765,20.38,73790.3,4.33,1.41,1.37,0,*7E
1500048505.8,13766,20.38,73792.8,4.31,1.37,1.41,0,*7F
1500048507.03,13767,20.38,73790.8,4.31,1.37,1.41,0,*7E
1500048508.26,13768,20.31,73788.0,4.33,1.25,1.21,0,*76
1500048509.53,13769,20.38,73794.5,4.31,1.29,1.25,0,*7D
1500048510.79,13770,20.38,73788.3,4.31,1.37,1.37,0,*79
1500048512.03,13771,20.38,73790.3,4.33,1.29,1.37,0,*75
1500048513.3,13772,20.38,73790.5,4.31,1.29,1.37,0,*74
1500048514.56,13773,20.38,73792.0,4.31,1.29,1.25,0,*76
1500048515.83,13774,20.38,73788.0,4.31,1.37,1.37,0,*7D
1500048517.05,13775,20.38,73792.5,4.31,1.41,1.47,0,*7A
1500048518.31,13776,20.38,73792.8,4.31,1.29,1.25,0,*73
1500048519.55,13777,20.38,73790.3,4.31,1.37,1.41,0,*7F
1500048520.72,13778,20.38,73794.3,4.33,1.41,1.41,0,*73
1500048521.91,13779,20.38,73790.3,4.31,1.41,1.41,0,*70
1500048523.16,13780,20.38,73788.3,4.31,1.47,1.47,0,*76
1500048524.38,13781,20.38,73794.0,4.31,1.47,1.41,0,*71
1500048525.61,13782,20.38,73792.5,4.31,1.41,1.25,0,*76
1500048526.88,13783,20.38,73792.0,4.31,1.37,1.21,0,*72
1500048528.12,13784,20.38,73788.5,4.33,1.29,1.13,0,*79
1500048529.38,13785,20.38,73794.5,4.31,1.37,1.21,0,*74
1500048530.63,13786,20.38,73794.5,4.31,1.47,1.47,0,*70
1500048531.8,13787,20.31,73788.8,4.33,1.41,1.41,0,*73
1500048533.05,13788,20.38,73794.0,4.31,1.47,1.47,0,*7E
1500048534.32,13789,20.38,73790.3,4.31,1.13,1.09,0,*74
1500048535.55,13790,20.38,73792.8,4.31,0.97,0.91,0,*71
1500048536.8,13791,20.38,73790.5,4.31,0.79,0.79,0,*76
1500048538.05,13792,20.38,73794.8,4.31,0.91,0.91,0,*75